Forks, WA

9:36 AM PST on February 26, 2017 (GMT -0800)
Quillayute

Weather History for KUIL - March, 2012

Change the Weather History Date:

Thursday, March 15, 2012

  Actual Average Record
Temperature  
Mean Temperature 45 °F 44 °F  
Max Temperature 49 °F 51 °F 62 °F (1988)
Min Temperature 40 °F 37 °F 24 °F (1985)
Degree Days  
Heating Degree Days 20 21  
Month to date heating degree days 323  
Since 1 July heating degree days 4168  
Cooling Degree Days 0 0  
Month to date cooling degree days 0  
Year to date cooling degree days 0  
Moisture  
Dew Point 44 °F    
Average Humidity 93    
Maximum Humidity 100    
Minimum Humidity 81    
Precipitation  
Precipitation 1.37 in 0.36 in 4.00 in (1974)
Month to date precipitation 5.40  
Year to date precipitation 30.36  
Sea Level Pressure  
Sea Level Pressure 29.49 in    
Wind  
Wind Speed 12 mph (South)    
Max Wind Speed 24 mph    
Max Gust Speed 44 mph    
Visibility 6 miles    
Events Rain    
T = Trace of Precipitation, MM = Missing Value Source: NWS Daily Summary

Daily Weather History Graph

Daily Weather History Graph

Search for Another Location

Airport or City:

Trip Planner

Search our weather history database for the weather conditions in past years. The results will help you decide how hot, cold, wet, or windy it might be!

Date:

Astronomy

Mar. 15, 2012 Rise Set
Actual Time 7:30 AM PDT 7:24 PM PDT
Civil Twilight 6:59 AM PDT 7:55 PM PDT
Nautical Twilight 6:23 AM PDT 8:31 PM PDT
Astronomical Twilight 5:46 AM PDT 9:08 PM PDT
Moon 3:29 AM PDT (3/15) 12:22 PM PDT (3/15)
Length of Visible Light 12h 56m
Length of Day
11h 54m
Last Quarter, 42% of the Moon is Illuminated
Mar 15
Last Quarter
Mar 22
New
Mar 30
First Quarter
Apr 6
Full
Apr 13
Last Quarter

Hourly Weather History & Observations

Time (PDT) Temp. Windchill Dew Point Humidity Pressure Visibility Wind Dir Wind Speed Gust Speed Precip Events Conditions
12:00 AM 46.4 °F 40.1 °F 44.6 °F 93% 29.51 in 4.0 mi SSE 15.0 mph 23.0 mph 0.02 in Rain Rain
12:53 AM 46.0 °F 40.2 °F 45.0 °F 96% 29.47 in 4.0 mi SSE 12.7 mph 27.6 mph 0.15 in Rain Light Rain
1:02 AM 46.4 °F 39.8 °F 44.6 °F 93% 29.46 in 4.0 mi SSE 16.1 mph 27.6 mph 0.02 in Rain Rain
1:49 AM 48.2 °F - 46.4 °F 93% 29.45 in 3.0 mi South 16.1 mph 32.2 mph 0.18 in Rain Rain
1:53 AM 48.0 °F - 46.9 °F 96% 29.45 in 2.5 mi South 12.7 mph 32.2 mph 0.19 in Rain Rain
2:03 AM 48.2 °F - 46.4 °F 93% 29.43 in 3.0 mi South 17.3 mph 36.8 mph 0.03 in Rain Rain
2:32 AM 48.2 °F - 46.4 °F 93% 29.42 in 2.5 mi SSE 13.8 mph 31.1 mph 0.17 in Rain Rain
2:53 AM 48.9 °F - 46.9 °F 93% 29.41 in 3.0 mi South 18.4 mph 43.7 mph 0.26 in Rain Rain
3:37 AM 48.2 °F - 48.2 °F 100% 29.38 in 2.5 mi South 18.4 mph 31.1 mph 0.14 in Rain Rain
3:53 AM 48.9 °F - 48.0 °F 97% 29.37 in 2.0 mi South 19.6 mph 39.1 mph 0.20 in Rain Rain
4:15 AM 48.2 °F - 48.2 °F 100% 29.36 in 1.8 mi South 15.0 mph 36.8 mph 0.09 in Rain Rain
4:22 AM 48.2 °F - 48.2 °F 100% 29.36 in 1.5 mi South 17.3 mph 36.8 mph 0.12 in Rain Rain
4:53 AM 48.9 °F - 48.0 °F 97% 29.36 in 1.5 mi South 18.4 mph 36.8 mph 0.24 in Rain Rain
5:12 AM 48.2 °F - 48.2 °F 100% 29.35 in 2.0 mi South 21.9 mph 36.8 mph 0.06 in Rain Light Rain
5:24 AM 48.2 °F - 48.2 °F 100% 29.35 in 1.8 mi South 18.4 mph 29.9 mph 0.10 in Rain Light Rain
5:33 AM 48.2 °F - 48.2 °F 100% 29.35 in 2.5 mi South 17.3 mph 33.4 mph 0.12 in Rain Light Rain
5:53 AM 48.9 °F - 48.9 °F 100% 29.35 in 3.0 mi South 19.6 mph 35.7 mph 0.14 in Rain Light Rain
6:01 AM 48.2 °F - 48.2 °F 100% 29.35 in 6.0 mi SSW 18.4 mph 34.5 mph 0.00 in Rain Light Rain
6:29 AM 48.2 °F - 48.2 °F 100% 29.34 in 10.0 mi South 18.4 mph 28.8 mph 0.00 in   Overcast
6:42 AM 48.2 °F - 46.4 °F 93% 29.34 in 10.0 mi South 12.7 mph 24.2 mph 0.00 in   Overcast
6:53 AM 48.0 °F - 46.9 °F 96% 29.35 in 5.0 mi South 13.8 mph 24.2 mph 0.00 in Rain Light Rain
7:14 AM 48.2 °F - 46.4 °F 93% 29.35 in 2.0 mi South 18.4 mph 27.6 mph 0.02 in Rain Light Rain
7:22 AM 48.2 °F - 46.4 °F 93% 29.36 in 4.0 mi South 16.1 mph 25.3 mph 0.03 in Rain Light Rain
7:53 AM 48.0 °F - 48.0 °F 100% 29.37 in 9.0 mi South 15.0 mph 27.6 mph 0.05 in Rain Light Rain
8:53 AM 48.0 °F - 46.9 °F 96% 29.38 in 7.0 mi South 11.5 mph 21.9 mph 0.00 in   Overcast
9:53 AM 48.9 °F - 46.9 °F 93% 29.40 in 6.0 mi South 13.8 mph 33.4 mph N/A   Overcast
10:26 AM 48.2 °F - 46.4 °F 93% 29.40 in 7.0 mi South 16.1 mph 28.8 mph N/A   Overcast
10:49 AM 48.2 °F - 46.4 °F 93% 29.41 in 7.0 mi South 16.1 mph 31.1 mph N/A   Overcast
10:53 AM 48.9 °F - 46.9 °F 93% 29.42 in 7.0 mi South 20.7 mph 29.9 mph N/A   Overcast
11:14 AM 48.2 °F - 46.4 °F 93% 29.41 in 6.0 mi South 19.6 mph 35.7 mph N/A   Overcast
11:53 AM 48.9 °F - 46.0 °F 90% 29.42 in 7.0 mi South 12.7 mph 33.4 mph N/A   Overcast
12:29 PM 48.2 °F - 46.4 °F 93% 29.44 in 2.0 mi South 13.8 mph 36.8 mph 0.00 in Rain Light Rain
12:32 PM 48.2 °F - 46.4 °F 93% 29.45 in 3.0 mi SSW 16.1 mph 36.8 mph 0.00 in Rain Light Rain
12:43 PM 48.2 °F - 44.6 °F 87% 29.46 in 7.0 mi SSW 24.2 mph 36.8 mph 0.00 in   Overcast
12:53 PM 48.0 °F - 44.1 °F 86% 29.47 in 8.0 mi SSW 20.7 mph 33.4 mph 0.00 in   Overcast
1:15 PM 48.2 °F - 44.6 °F 87% 29.48 in 8.0 mi SSW 18.4 mph 29.9 mph N/A   Overcast
1:53 PM 48.0 °F - 45.0 °F 89% 29.49 in 8.0 mi SSW 18.4 mph 31.1 mph N/A   Overcast
2:33 PM 46.4 °F 40.1 °F 42.8 °F 87% 29.53 in 10.0 mi SW 15.0 mph - 0.00 in Rain Light Rain
2:53 PM 46.0 °F 40.2 °F 42.1 °F 86% 29.55 in 10.0 mi SW 12.7 mph 21.9 mph 0.00 in Rain Light Rain
3:53 PM 45.0 °F 39.7 °F 43.0 °F 93% 29.59 in 10.0 mi SW 10.4 mph - 0.02 in   Overcast
4:27 PM 44.6 °F 36.6 °F 39.2 °F 81% 29.61 in 2.0 mi SW 19.6 mph 26.5 mph 0.00 in Rain Light Rain
4:34 PM 42.8 °F 36.6 °F 39.2 °F 87% 29.60 in 1.5 mi WSW 11.5 mph 26.5 mph 0.03 in Rain Light Rain
4:38 PM 44.6 °F 38.8 °F 41.0 °F 87% 29.61 in 3.0 mi SW 11.5 mph - 0.03 in Rain Light Rain
4:53 PM 45.0 °F 40.6 °F 43.0 °F 93% 29.61 in 10.0 mi SW 8.1 mph - 0.04 in   Overcast
5:53 PM 45.0 °F 41.2 °F 41.0 °F 86% 29.62 in 8.0 mi South 6.9 mph - 0.00 in Rain Light Rain
6:00 PM 42.8 °F 37.0 °F 41.0 °F 93% 29.61 in 3.0 mi South 10.4 mph 18.4 mph 0.00 in Rain Light Rain
6:08 PM 42.8 °F 37.0 °F 41.0 °F 93% 29.62 in 1.8 mi SW 10.4 mph - 0.02 in Rain Rain
6:19 PM 42.8 °F 38.0 °F 41.0 °F 93% 29.62 in 3.0 mi SW 8.1 mph - 0.04 in Rain Light Rain
6:51 PM 42.8 °F 37.5 °F 39.2 °F 87% 29.62 in 8.0 mi South 9.2 mph 19.6 mph 0.07 in Rain Light Rain
6:53 PM 42.1 °F 36.6 °F 39.0 °F 89% 29.62 in 8.0 mi South 9.2 mph 19.6 mph 0.07 in Rain Light Rain
7:15 PM 41.0 °F 38.0 °F 39.2 °F 93% 29.62 in 2.5 mi South 4.6 mph - 0.02 in Rain Light Rain
7:24 PM 42.8 °F - 39.2 °F 87% 29.61 in 4.0 mi Calm Calm - 0.03 in Rain Light Rain
7:53 PM 42.1 °F 40.2 °F 39.9 °F 92% 29.61 in 10.0 mi Variable 3.5 mph - 0.03 in Rain Light Rain
8:10 PM 42.8 °F - 39.2 °F 87% 29.60 in 10.0 mi Calm Calm - 0.01 in Rain Light Rain
8:50 PM 41.0 °F 38.0 °F 39.2 °F 93% 29.60 in 10.0 mi East 4.6 mph - 0.01 in   Overcast
8:53 PM 41.0 °F 38.0 °F 39.9 °F 96% 29.61 in 10.0 mi East 4.6 mph - 0.01 in   Overcast
9:39 PM 41.0 °F - 41.0 °F 100% 29.60 in 10.0 mi Calm Calm - 0.01 in   Overcast
9:53 PM 41.0 °F 39.0 °F 41.0 °F 100% 29.60 in 10.0 mi SE 3.5 mph - 0.01 in   Overcast
10:00 PM 42.8 °F 41.1 °F 41.0 °F 93% 29.59 in 10.0 mi SE 3.5 mph - N/A   Overcast
10:26 PM 41.0 °F 38.0 °F 41.0 °F 100% 29.59 in 10.0 mi ESE 4.6 mph - N/A   Overcast
10:33 PM 41.0 °F 38.0 °F 39.2 °F 93% 29.59 in 10.0 mi ESE 4.6 mph - N/A   Mostly Cloudy
10:37 PM 41.0 °F 38.0 °F 39.2 °F 93% 29.59 in 10.0 mi ESE 4.6 mph - N/A   Mostly Cloudy
10:49 PM 41.0 °F 39.0 °F 39.2 °F 93% 29.58 in 10.0 mi ESE 3.5 mph - N/A   Mostly Cloudy
10:53 PM 41.0 °F 38.0 °F 39.9 °F 96% 29.59 in 10.0 mi ESE 4.6 mph - N/A   Mostly Cloudy
11:29 PM 41.0 °F - 39.2 °F 93% 29.57 in 10.0 mi Calm Calm - N/A   Overcast
11:53 PM 41.0 °F - 39.9 °F 96% 29.56 in 10.0 mi Calm Calm - 0.00 in Rain Light Rain